Location: Bukovany
(49.8234°N, 14.6297°E)
Time: 18:12:39
(UTC+00:00)

USA 215 - Pass Details

Date: 17 November 2025
Orbit: 1101 x 1106 km, 123.0° (Epoch: 02 December)

Event Time Altitude Azimuth Distance (km) Brightness Sun altitude
Rises 16:44:03 0° 140° (SE) 3,911 5.9 -14.1°
Reaches altitude 10° 16:46:36 10° 145° (SE) 2,957 5.3 -14.5°
Maximum altitude 16:52:58 54° 222° (SW) 1,318 4.0 -15.5°
Drops below altitude 10° 16:59:24 10° 299° (WNW) 2,972 6.3 -16.6°
Sets 17:01:58 0° 304° (NW) 3,934 6.9 -17.0°
